FW2736 Weather Reports


Display with metric or nautical units.
time (UTC)temp
F
wind
direction
speed
MPH
gust
MPH
rain 1hr
in
rain 24hr
in
rain mn
in
humidity
%
barometer
mb
20260505002738 66 297 13.0 0.0 0.00 0.00 0.00 43 1015.2
20260505002242 66 303 10.0 0.0 0.00 0.00 0.00 43 1015.2
20260505001713 66 325 6.0 0.0 0.00 0.00 0.00 43 1015.2
20260505001242 66 266 8.0 0.0 0.00 0.00 0.00 42 1015.2
20260505000740 66 299 7.0 0.0 0.00 0.00 0.00 42 1015.2
20260505000239 66 298 10.0 0.0 0.00 0.00 0.00 42 1015.2
20260504235739 66 354 10.0 0.0 0.00 0.00 0.00 41 1015.2
20260504235241 67 293 8.0 0.0 0.00 0.00 0.00 40 1015.2
20260504234742 67 306 6.0 0.0 0.00 0.00 0.00 40 1015.2
20260504234238 68 350 12.0 0.0 0.00 0.00 0.00 38 1015.2
20260504233738 68 337 8.0 0.0 0.00 0.00 0.00 38 1015.2
20260504233215 68 262 1.0 0.0 0.00 0.00 0.00 38 1015.2
20260504232742 67 134 5.0 0.0 0.00 0.00 0.00 39 1015.2
20260504232240 68 314 5.0 0.0 0.00 0.00 0.00 40 1015.2
20260504231738 67 70 6.0 0.0 0.00 0.00 0.00 40 1015.2
20260504231244 67 303 7.0 0.0 0.00 0.00 0.00 40 1015.2
20260504230741 67 297 7.0 0.0 0.00 0.00 0.00 40 1015.2
20260504230211 66 256 7.0 0.0 0.00 0.00 0.00 42 1015.2
20260504225717 66 323 7.0 0.0 0.00 0.00 0.00 42 1015.2
20260504225242 66 173 5.0 0.0 0.00 0.00 0.00 42 1015.2
20260504224740 66 0 8.0 0.0 0.00 0.00 0.00 43 1015.6
20260504224237 66 333 11.0 0.0 0.00 0.00 0.00 42 1015.6
20260504223739 67 349 8.0 0.0 0.00 0.00 0.00 41 1015.6
20260504223239 67 13 8.0 0.0 0.00 0.00 0.00 43 1015.9
20260504222715 66 249 7.0 0.0 0.00 0.00 0.00 44 1015.9
20260504222213 66 340 7.0 0.0 0.00 0.00 0.00 44 1016.3
20260504221741 65 291 10.0 0.0 0.00 0.00 0.00 44 1016.3
20260504221243 65 350 10.0 0.0 0.00 0.00 0.00 44 1016.3
20260504220710 66 315 8.0 0.0 0.00 0.00 0.00 44 1016.3
20260504220215 66 319 7.0 0.0 0.00 0.00 0.00 43 1016.3
20260504215736 66 322 10.0 0.0 0.00 0.00 0.00 43 1016.3
20260504215241 67 32 5.0 0.0 0.00 0.00 0.00 43 1016.3
20260504214738 67 231 5.0 0.0 0.00 0.00 0.00 43 1016.3
20260504214238 66 343 9.0 0.0 0.00 0.00 0.00 44 1016.3
20260504213714 66 271 9.0 0.0 0.00 0.00 0.00 44 1016.6
20260504213236 65 293 9.0 0.0 0.00 0.00 0.00 46 1016.6
20260504212739 65 327 9.0 0.0 0.00 0.00 0.00 46 1016.6
20260504212214 66 313 10.0 0.0 0.00 0.00 0.00 45 1016.9
20260504211741 67 339 9.0 0.0 0.00 0.00 0.00 44 1016.9
20260504211213 66 123 7.0 0.0 0.00 0.00 0.00 44 1016.6
20260504210736 66 138 6.0 0.0 0.00 0.00 0.00 45 1016.6
20260504210242 65 132 6.0 0.0 0.00 0.00 0.00 46 1016.6
20260504205741 66 30 6.0 0.0 0.00 0.00 0.00 45 1016.6
20260504205238 66 359 3.0 0.0 0.00 0.00 0.00 46 1016.9
20260504204738 65 65 3.0 0.0 0.00 0.00 0.00 47 1016.6
20260504204242 65 322 4.0 0.0 0.00 0.00 0.00 47 1016.9
20260504203740 65 19 5.0 0.0 0.00 0.00 0.00 47 1016.9
20260504203215 65 293 6.0 0.0 0.00 0.00 0.00 47 1016.9
20260504202741 66 52 6.0 0.0 0.00 0.00 0.00 47 1016.9
20260504202240 65 354 10.0 0.0 0.00 0.00 0.00 46 1016.9
20260504201714 65 90 7.0 0.0 0.00 0.00 0.00 46 1016.9
20260504201243 64 328 7.0 0.0 0.00 0.00 0.00 47 1016.9
20260504200742 64 287 0.0 0.0 0.00 0.00 0.00 49 1016.9
20260504200236 64 333 0.0 0.0 0.00 0.00 0.00 49 1016.9
20260504195710 64 52 0.0 0.0 0.00 0.00 0.00 48 1017.3
20260504195213 64 124 0.0 0.0 0.00 0.00 0.00 48 1017.3
20260504194740 65 336 0.0 0.0 0.00 0.00 0.00 48 1017.3
20260504194243 64 54 5.0 0.0 0.00 0.00 0.00 48 1017.3
20260504193711 64 323 5.0 0.0 0.00 0.00 0.00 49 1017.3
20260504193211 63 307 7.0 0.0 0.00 0.00 0.00 50 1017.3
20260504192740 63 316 8.0 0.0 0.00 0.00 0.00 51 1017.3
20260504192214 63 303 0.0 0.0 0.00 0.00 0.00 52 1017.3
20260504191744 62 338 0.0 0.0 0.00 0.00 0.00 54 1017.3
20260504191237 61 20 6.0 0.0 0.00 0.00 0.00 54 1017.6
20260504190743 61 355 7.0 0.0 0.00 0.00 0.00 54 1017.6
20260504190238 61 209 7.0 0.0 0.00 0.00 0.00 55 1017.6
20260504185714 61 124 9.0 0.0 0.00 0.00 0.00 55 1017.6
20260504185243 61 139 9.0 0.0 0.00 0.00 0.00 55 1017.3
20260504184740 61 112 8.0 0.0 0.00 0.00 0.00 55 1017.3
20260504184213 61 116 8.0 0.0 0.00 0.00 0.00 55 1017.3
20260504183714 62 126 7.0 0.0 0.00 0.00 0.00 54 1017.3
20260504183213 62 203 6.0 0.0 0.00 0.00 0.00 52 1017.6
20260504182714 62 330 5.0 0.0 0.00 0.00 0.00 51 1017.6
20260504182216 62 225 3.0 0.0 0.00 0.00 0.00 50 1017.6
20260504181736 63 354 3.0 0.0 0.00 0.00 0.00 50 1017.6
20260504181214 63 72 7.0 0.0 0.00 0.00 0.00 50 1017.6
20260504180714 63 25 2.0 0.0 0.00 0.00 0.00 51 1017.6
20260504180214 62 320 5.0 0.0 0.00 0.00 0.00 50 1017.6
20260504175713 62 330 5.0 0.0 0.00 0.00 0.00 51 1017.3
20260504175215 62 321 5.0 0.0 0.00 0.00 0.00 49 1017.3
20260504174714 62 206 5.0 0.0 0.00 0.00 0.00 48 1017.3
20260504174211 62 273 6.0 0.0 0.00 0.00 0.00 49 1017.3
20260504173711 62 320 6.0 0.0 0.00 0.00 0.00 50 1017.3
20260504173213 62 33 0.0 0.0 0.00 0.00 0.00 51 1017.3
20260504172713 61 118 2.0 0.0 0.00 0.00 0.00 53 1017.3
20260504172226 61 269 6.0 0.0 0.00 0.00 0.00 53 1017.3
20260504171726 61 131 6.0 0.0 0.00 0.00 0.00 53 1017.3
20260504171226 60 107 9.0 0.0 0.00 0.00 0.00 54 1017.3
20260504170726 60 114 9.0 0.0 0.00 0.00 0.00 55 1016.9
20260504170226 60 156 10.0 0.0 0.00 0.00 0.00 56 1016.9
20260504160226 59 331 7.0 0.0 0.00 0.00 0.00 60 1016.9
20260504150727 58 320 8.0 0.0 0.00 0.00 0.00 63 1016.6
20260504150225 58 320 8.0 0.0 0.00 0.00 0.00 62 1016.9
20260504141223 55 317 5.0 0.0 0.00 0.00 0.00 70 1016.6
20260504140724 55 15 4.0 0.0 0.00 0.00 0.00 71 1016.6
20260504140142 54 315 5.0 0.0 0.00 0.00 0.00 71 1016.9
20260504130722 54 294 6.0 0.0 0.00 0.00 0.00 73 1016.6
20260504130221 54 23 6.0 0.0 0.00 0.00 0.00 73 1016.3
20260504120222 54 349 8.0 0.0 0.00 0.00 0.00 76 1015.9
20260504110719 55 332 0.0 0.0 0.00 0.00 0.00 78 1016.3
20260504110218 55 9 6.0 0.0 0.00 0.00 0.00 78 1015.9
20260504100218 55 324 5.0 0.0 0.00 0.00 0.00 75 1015.6
20260504081715 56 114 7.0 0.0 0.00 0.00 0.00 78 1016.9
20260504081216 56 193 6.0 0.0 0.00 0.00 0.00 77 1016.9
20260504080714 56 178 7.0 0.0 0.00 0.00 0.00 77 1016.9
20260504080214 56 97 4.0 0.0 0.00 0.00 0.00 77 1017.3
20260504070213 56 62 0.0 0.0 0.00 0.00 0.00 76 1016.6
20260504060213 56 138 5.0 0.0 0.00 0.00 0.00 74 1016.3
20260504050713 57 126 6.0 0.0 0.00 0.00 0.00 72 1016.3
20260504050210 57 132 3.0 0.0 0.00 0.00 0.00 72 1016.3
20260504045711 57 181 5.0 0.0 0.00 0.00 0.00 71 1016.6
20260504045214 57 117 6.0 0.0 0.00 0.00 0.00 71 1016.6
20260504044713 57 144 5.0 0.0 0.00 0.00 0.00 71 1016.6
20260504044212 57 185 7.0 0.0 0.00 0.00 0.00 71 1016.6
20260504043711 58 174 6.0 0.0 0.00 0.00 0.00 70 1016.3
20260504043210 58 133 6.0 0.0 0.00 0.00 0.00 70 1016.3
20260504042711 58 45 6.0 0.0 0.00 0.00 0.00 69 1016.3
20260504042213 58 123 6.0 0.0 0.00 0.00 0.00 69 1016.3
20260504041712 58 153 6.0 0.0 0.00 0.00 0.00 68 1016.3
20260504041212 58 219 6.0 0.0 0.00 0.00 0.00 69 1016.3
20260504040709 58 189 6.0 0.0 0.00 0.00 0.00 68 1016.6
20260504040210 59 109 5.0 0.0 0.00 0.00 0.00 68 1016.3
20260504035711 59 155 6.0 0.0 0.00 0.00 0.00 68 1016.3
20260504035213 59 141 7.0 0.0 0.00 0.00 0.00 67 1016.3
20260504034713 59 110 6.0 0.0 0.00 0.00 0.00 66 1015.9
20260504034212 60 152 4.0 0.0 0.00 0.00 0.00 65 1015.9
20260504033714 60 114 6.0 0.0 0.00 0.00 0.00 64 1015.9
20260504033213 60 55 6.0 0.0 0.00 0.00 0.00 63 1015.9
20260504032710 60 94 3.0 0.0 0.00 0.00 0.00 63 1015.6
20260504032210 60 118 11.0 0.0 0.00 0.00 0.00 62 1015.6
20260504031713 60 145 11.0 0.0 0.00 0.00 0.00 62 1015.2
20260504031210 60 31 17.0 0.0 0.00 0.00 0.00 62 1015.2
20260504030714 60 125 17.0 0.0 0.00 0.00 0.00 62 1015.2
20260504030212 60 101 8.0 0.0 0.00 0.00 0.00 62 1015.2
20260504025711 60 296 10.0 0.0 0.00 0.00 0.00 62 1014.9
20260504025211 60 111 10.0 0.0 0.00 0.00 0.00 62 1014.9
20260504024710 60 309 12.0 0.0 0.00 0.00 0.00 62 1014.9
20260504024213 60 198 10.0 0.0 0.00 0.00 0.00 62 1014.9
20260504023710 61 340 11.0 0.0 0.00 0.00 0.00 62 1014.9
20260504023214 61 148 10.0 0.0 0.00 0.00 0.00 61 1014.9
20260504022713 61 87 16.0 0.0 0.00 0.00 0.00 61 1014.9
20260504022214 61 97 16.0 0.0 0.00 0.00 0.00 60 1014.6
20260504021711 62 104 9.0 0.0 0.00 0.00 0.00 60 1014.6
20260504021212 62 71 11.0 0.0 0.00 0.00 0.00 59 1014.2
20260504020711 63 94 11.0 0.0 0.00 0.00 0.00 59 1014.2
20260504020213 63 307 11.0 0.0 0.00 0.00 0.00 58 1014.2
20260504015726 63 101 10.0 0.0 0.00 0.00 0.00 58 1013.9
20260504015216 64 89 8.0 0.0 0.00 0.00 0.00 57 1013.9
20260504014716 64 168 10.0 0.0 0.00 0.00 0.00 57 1013.5
20260504014216 64 125 15.0 0.0 0.00 0.00 0.00 57 1013.5
20260504013718 65 168 11.0 0.0 0.00 0.00 0.00 56 1013.9
20260504013216 65 106 12.0 0.0 0.00 0.00 0.00 56 1013.5
20260504012642 65 117 17.0 0.0 0.00 0.00 0.00 56 1013.5
20260504012218 66 130 17.0 0.0 0.00 0.00 0.00 55 1013.5
20260504011717 66 114 13.0 0.0 0.00 0.00 0.00 54 1013.5
20260504011215 67 22 11.0 0.0 0.00 0.00 0.00 53 1013.5
20260504010716 67 137 10.0 0.0 0.00 0.00 0.00 53 1013.5
20260504010216 67 132 15.0 0.0 0.00 0.00 0.00 53 1013.5
20260504005718 68 133 13.0 0.0 0.00 0.00 0.00 52 1013.2
20260504005215 68 111 11.0 0.0 0.00 0.00 0.00 51 1013.2
20260504004717 68 141 14.0 0.0 0.00 0.00 0.00 51 1013.2
20260504004215 68 121 11.0 0.0 0.00 0.00 0.00 51 1013.2
20260504003638 69 139 10.0 0.0 0.00 0.00 0.00 51 1013.2
20260504003216 69 88 8.0 0.0 0.00 0.00 0.00 51 1013.2